JML101 EBBR-LHBP

Flight info

Callsign JML101
Flight time 1h 32m
Altitude 39000
Route SOPOK Y863 OGLOR DCT EMGOD DCT BOMBI DCT BOREP DCT ENITA DCT ETVIS DCT BUDEX DCT TOVKA DCT ANEXA
Aircraft B737/M-SDE2E3FGHIRWXY/LB1

Departure

Time 2026-05-04 16:00
Airport Brussels Airport (EBBR)

Arrival

Time 2026-05-04 17:32
Airport Budapest Liszt Ferenc International Airport (LHBP)
Time Latitude Longitude Altitude Speed Heading
2026-05-04 15:30 50.89640 4.46783 134 ft 0 kts 326°
2026-05-04 15:43 50.89638 4.46785 135 ft 1 kts 326°
2026-05-04 15:44 50.89632 4.46791 135 ft 1 kts 326°
2026-05-04 15:44 50.89627 4.46797 135 ft 1 kts 336°
2026-05-04 15:44 50.89621 4.46801 135 ft 1 kts 343°
2026-05-04 15:44 50.89615 4.46804 135 ft 1 kts 352°
2026-05-04 15:45 50.89608 4.46805 136 ft 1 kts 359°
2026-05-04 15:45 50.89599 4.46804 136 ft 1 kts 29°
2026-05-04 15:45 50.89594 4.46795 136 ft 0 kts 81°
2026-05-04 15:45 50.89595 4.46801 136 ft 2 kts 82°
2026-05-04 15:46 50.89597 4.46822 136 ft 2 kts 82°
2026-05-04 15:46 50.89599 4.46847 136 ft 3 kts 82°
2026-05-04 15:46 50.89604 4.46874 137 ft 3 kts 57°
2026-05-04 15:46 50.89619 4.46889 137 ft 2 kts 18°
2026-05-04 15:47 50.89638 4.46891 136 ft 2 kts
2026-05-04 15:47 50.89656 4.46893 135 ft 2 kts
2026-05-04 15:47 50.89658 4.46893 135 ft 0 kts
2026-05-04 15:52 50.89665 4.46894 135 ft 3 kts
2026-05-04 15:52 50.89729 4.46894 132 ft 10 kts
2026-05-04 15:52 50.89775 4.46973 131 ft 11 kts 62°
2026-05-04 15:53 50.89806 4.47084 132 ft 13 kts 66°
2026-05-04 15:53 50.89844 4.47212 134 ft 13 kts 65°
2026-05-04 15:53 50.89882 4.47345 134 ft 16 kts 65°
2026-05-04 15:53 50.89931 4.47515 134 ft 12 kts 66°
2026-05-04 15:54 50.89965 4.47594 133 ft 10 kts 28°
2026-05-04 15:54 50.90066 4.47549 128 ft 18 kts 334°
2026-05-04 15:54 50.90170 4.47472 121 ft 12 kts 335°
2026-05-04 15:54 50.90241 4.47457 122 ft 10 kts 20°
2026-05-04 15:55 50.90283 4.47546 118 ft 10 kts 65°
2026-05-04 15:55 50.90321 4.47678 118 ft 20 kts 65°
2026-05-04 15:55 50.90385 4.47899 118 ft 22 kts 65°
2026-05-04 15:55 50.90441 4.48092 121 ft 19 kts 66°
2026-05-04 15:56 50.90495 4.48278 119 ft 18 kts 65°
2026-05-04 15:56 50.90546 4.48457 117 ft 18 kts 65°
2026-05-04 15:56 50.90597 4.48633 112 ft 18 kts 65°
2026-05-04 15:56 50.90650 4.48815 112 ft 18 kts 65°
2026-05-04 15:57 50.90701 4.48993 112 ft 17 kts 66°
2026-05-04 15:57 50.90749 4.49161 112 ft 17 kts 65°
2026-05-04 15:57 50.90797 4.49326 113 ft 16 kts 65°
2026-05-04 15:57 50.90843 4.49484 113 ft 15 kts 65°
2026-05-04 15:58 50.90886 4.49636 110 ft 15 kts 65°
2026-05-04 15:58 50.90930 4.49783 110 ft 14 kts 53°
2026-05-04 15:58 50.90999 4.49882 108 ft 14 kts 33°
2026-05-04 15:58 50.91084 4.49942 103 ft 12 kts 18°
2026-05-04 15:59 50.91132 4.49875 104 ft 11 kts 269°
2026-05-04 15:59 50.91116 4.49801 106 ft 0 kts 245°
2026-05-04 15:59 50.91104 4.49761 107 ft 23 kts 245°
2026-05-04 15:59 50.90887 4.49010 115 ft 125 kts 245°
2026-05-04 16:00 50.90451 4.47478 570 ft 167 kts 245°
2026-05-04 16:00 50.89979 4.45931 2036 ft 152 kts 245°
2026-05-04 16:00 50.89382 4.44417 2863 ft 175 kts 222°
2026-05-04 16:00 50.88139 4.43647 3086 ft 215 kts 175°
2026-05-04 16:01 50.86763 4.44615 3686 ft 227 kts 134°
2026-05-04 16:01 50.85756 4.46683 4212 ft 251 kts 125°
2026-05-04 16:01 50.84633 4.48944 5045 ft 256 kts 131°
2026-05-04 16:01 50.83454 4.50927 6457 ft 239 kts 135°
2026-05-04 16:02 50.82231 4.52787 7064 ft 263 kts 134°
2026-05-04 16:02 50.80909 4.54908 7750 ft 268 kts 133°
2026-05-04 16:02 50.78381 4.58991 10215 ft 264 kts 134°
2026-05-04 16:03 50.77086 4.61062 11224 ft 267 kts 134°
2026-05-04 16:03 50.75693 4.63197 11704 ft 294 kts 135°
2026-05-04 16:03 50.74673 4.64716 11864 ft 315 kts 136°
2026-05-04 16:03 50.73096 4.67337 12261 ft 339 kts 130°
2026-05-04 16:04 50.71533 4.70195 13157 ft 346 kts 130°
2026-05-04 16:04 50.68795 4.76463 15197 ft 354 kts 107°
2026-05-04 16:04 50.68176 4.80222 16267 ft 356 kts 106°
2026-05-04 16:05 50.67469 4.84012 17112 ft 364 kts 108°
2026-05-04 16:05 50.66706 4.87858 18214 ft 366 kts 109°
2026-05-04 16:05 50.65143 4.95645 20068 ft 380 kts 109°
2026-05-04 16:06 50.64347 4.99636 20946 ft 384 kts 110°
2026-05-04 16:06 50.61912 5.11894 23269 ft 401 kts 110°
2026-05-04 16:07 50.61075 5.16112 23947 ft 406 kts 111°
2026-05-04 16:07 50.58277 5.28828 25923 ft 410 kts 127°
2026-05-04 16:08 50.56401 5.32158 26614 ft 404 kts 142°
2026-05-04 16:08 50.50107 5.41207 28487 ft 415 kts 141°
2026-05-04 16:09 50.45879 5.47382 29629 ft 421 kts 141°
2026-05-04 16:09 50.41561 5.53708 30554 ft 427 kts 141°
2026-05-04 16:10 50.37199 5.60087 31378 ft 432 kts 142°
2026-05-04 16:11 50.30546 5.69784 32561 ft 437 kts 142°
2026-05-04 16:11 50.28328 5.73006 33076 ft 435 kts 142°
2026-05-04 16:12 50.23851 5.85287 34406 ft 455 kts 109°
2026-05-04 16:12 50.21523 5.99750 35271 ft 459 kts 109°
2026-05-04 16:13 50.19891 6.09349 35972 ft 458 kts 109°
2026-05-04 16:13 50.18477 6.19083 36548 ft 465 kts 99°
2026-05-04 16:14 50.18709 6.29162 37225 ft 470 kts 86°
2026-05-04 16:14 50.19447 6.39311 37820 ft 471 kts 86°
2026-05-04 16:15 50.20414 6.54556 38785 ft 470 kts 87°
2026-05-04 16:16 50.21011 6.64768 38965 ft 475 kts 89°
2026-05-04 16:17 50.20526 6.90247 38991 ft 466 kts 95°
2026-05-04 16:18 50.20101 7.10388 38986 ft 463 kts 95°
2026-05-04 16:19 50.19484 7.35410 38988 ft 461 kts 98°
2026-05-04 16:20 50.17185 7.60193 38988 ft 463 kts 102°
2026-05-04 16:22 50.14880 7.85113 38983 ft 467 kts 102°
2026-05-04 16:23 50.12062 8.15172 38960 ft 467 kts 102°
2026-05-04 16:25 50.09165 8.45156 38961 ft 465 kts 102°
2026-05-04 16:26 50.05717 8.79870 38969 ft 463 kts 101°
2026-05-04 16:28 50.04585 9.05010 38965 ft 466 kts 96°
2026-05-04 16:29 50.03030 9.40042 38973 ft 463 kts 97°
2026-05-04 16:31 50.01827 9.64999 38962 ft 462 kts 97°
2026-05-04 16:32 50.00315 9.94922 38956 ft 463 kts 97°
2026-05-04 16:33 49.99267 10.14823 38957 ft 464 kts 97°
2026-05-04 16:34 49.98454 10.29822 38954 ft 464 kts 97°
2026-05-04 16:35 49.96772 10.59818 38959 ft 464 kts 97°
2026-05-04 16:36 49.95143 10.74568 38960 ft 461 kts 105°
2026-05-04 16:37 49.93051 10.89094 38959 ft 462 kts 105°
2026-05-04 16:38 49.90341 11.08594 38954 ft 462 kts 104°
2026-05-04 16:39 49.86942 11.32949 38957 ft 462 kts 104°
2026-05-04 16:40 49.84193 11.52335 38965 ft 462 kts 104°
2026-05-04 16:41 49.80700 11.76615 38995 ft 462 kts 104°
2026-05-04 16:43 49.77157 12.00853 39006 ft 461 kts 104°
2026-05-04 16:43 49.75012 12.15349 38996 ft 461 kts 104°
2026-05-04 16:45 49.70677 12.44255 38951 ft 461 kts 104°
2026-05-04 16:46 49.67264 12.68477 38959 ft 461 kts 103°
2026-05-04 16:47 49.63156 12.87004 38930 ft 456 kts 127°
2026-05-04 16:48 49.56408 13.01550 38937 ft 456 kts 127°
2026-05-04 16:49 49.48499 13.18815 38939 ft 456 kts 127°
2026-05-04 16:50 49.41777 13.33462 38939 ft 457 kts 127°
2026-05-04 16:51 49.36286 13.45362 38935 ft 457 kts 127°
2026-05-04 16:52 49.28918 13.61244 38943 ft 457 kts 127°
2026-05-04 16:53 49.23379 13.73123 38944 ft 457 kts 127°
2026-05-04 16:54 49.15983 13.88904 38941 ft 456 kts 127°
2026-05-04 16:55 49.04868 14.12445 38940 ft 456 kts 127°
2026-05-04 16:56 48.95583 14.32020 38939 ft 456 kts 124°
2026-05-04 16:57 48.91811 14.45277 38934 ft 456 kts 110°
2026-05-04 16:58 48.87390 14.63355 38936 ft 456 kts 111°
2026-05-04 17:00 48.80584 14.90359 38940 ft 457 kts 111°
2026-05-04 17:01 48.74865 15.12811 38952 ft 458 kts 111°
2026-05-04 17:02 48.70232 15.30832 38944 ft 460 kts 111°
2026-05-04 17:03 48.66728 15.44368 38940 ft 461 kts 111°
2026-05-04 17:03 48.63206 15.57899 38937 ft 461 kts 111°
2026-05-04 17:04 48.58476 15.75944 38938 ft 462 kts 111°
2026-05-04 17:05 48.53731 15.93903 38936 ft 462 kts 111°
2026-05-04 17:06 48.50141 16.07401 38937 ft 462 kts 111°
2026-05-04 17:07 48.46945 16.19349 38940 ft 461 kts 111°
2026-05-04 17:07 48.44127 16.29838 38945 ft 461 kts 111°
2026-05-04 17:08 48.40519 16.43195 38644 ft 463 kts 111°
2026-05-04 17:08 48.39302 16.47685 38317 ft 460 kts 111°
2026-05-04 17:09 48.38091 16.52141 37619 ft 459 kts 111°
2026-05-04 17:09 48.36889 16.56558 36954 ft 456 kts 111°
2026-05-04 17:09 48.35688 16.60962 36291 ft 454 kts 111°
2026-05-04 17:10 48.33277 16.69784 34716 ft 457 kts 111°
2026-05-04 17:10 48.29623 16.83089 32281 ft 456 kts 110°
2026-05-04 17:11 48.28417 16.87467 31627 ft 451 kts 110°
2026-05-04 17:11 48.27220 16.91797 31010 ft 446 kts 110°
2026-05-04 17:11 48.24956 17.00318 29934 ft 434 kts 109°
2026-05-04 17:12 48.23876 17.04531 29339 ft 429 kts 109°
2026-05-04 17:12 48.21769 17.12762 28309 ft 418 kts 109°
2026-05-04 17:13 48.18651 17.24804 26790 ft 411 kts 109°
2026-05-04 17:14 48.15537 17.36725 25294 ft 409 kts 110°
2026-05-04 17:14 48.14500 17.40677 24806 ft 406 kts 110°
2026-05-04 17:14 48.12438 17.48515 23840 ft 403 kts 110°
2026-05-04 17:15 48.11411 17.52409 23299 ft 401 kts 110°
2026-05-04 17:15 48.09381 17.60083 22263 ft 391 kts 110°
2026-05-04 17:16 48.07408 17.67523 21323 ft 378 kts 110°
2026-05-04 17:16 48.04531 17.78331 19972 ft 368 kts 111°
2026-05-04 17:17 48.03586 17.81872 19547 ft 366 kts 111°
2026-05-04 17:17 48.00776 17.92358 18232 ft 359 kts 111°
2026-05-04 17:18 47.99833 17.95782 17796 ft 354 kts 114°
2026-05-04 17:18 47.97574 18.02183 17348 ft 347 kts 117°
2026-05-04 17:19 47.95280 18.08573 16620 ft 355 kts 117°
2026-05-04 17:19 47.92962 18.15052 15758 ft 353 kts 117°
2026-05-04 17:20 47.90656 18.21467 14949 ft 350 kts 117°
2026-05-04 17:20 47.88362 18.27823 14131 ft 346 kts 117°
2026-05-04 17:20 47.87221 18.30977 13717 ft 345 kts 117°
2026-05-04 17:21 47.84959 18.37217 12860 ft 338 kts 118°
2026-05-04 17:21 47.82753 18.43289 12069 ft 329 kts 118°
2026-05-04 17:22 47.81681 18.46237 11687 ft 327 kts 118°
2026-05-04 17:22 47.80600 18.49203 11312 ft 326 kts 118°
2026-05-04 17:23 47.77373 18.58040 10176 ft 320 kts 118°
2026-05-04 17:23 47.76335 18.60879 9782 ft 303 kts 119°
2026-05-04 17:23 47.74403 18.66152 9064 ft 282 kts 119°
2026-05-04 17:24 47.73473 18.68684 8964 ft 279 kts 119°
2026-05-04 17:24 47.70629 18.76421 7694 ft 278 kts 119°
2026-05-04 17:25 47.69713 18.78910 7371 ft 273 kts 119°
2026-05-04 17:25 47.67925 18.83751 6737 ft 266 kts 120°
2026-05-04 17:26 47.65873 18.88251 6134 ft 261 kts 134°
2026-05-04 17:26 47.62130 18.94148 5355 ft 266 kts 134°
2026-05-04 17:27 47.59659 18.98138 4644 ft 257 kts 134°
2026-05-04 17:27 47.57352 19.01870 3995 ft 235 kts 134°
2026-05-04 17:28 47.55233 19.05294 3402 ft 219 kts 134°
2026-05-04 17:29 47.52323 19.10003 2590 ft 192 kts 135°
2026-05-04 17:29 47.49816 19.14062 1866 ft 159 kts 135°
2026-05-04 17:30 47.47814 19.17341 1321 ft 136 kts 128°
2026-05-04 17:31 47.46582 19.19333 949 ft 129 kts 135°
2026-05-04 17:31 47.44775 19.22227 478 ft 125 kts 134°
2026-05-04 17:32 47.43926 19.23609 455 ft 39 kts 133°
2026-05-04 17:33 47.43768 19.23599 456 ft 12 kts 262°
2026-05-04 17:33 47.43757 19.23480 456 ft 12 kts 262°
2026-05-04 17:34 47.43730 19.23206 454 ft 1 kts 261°
2026-05-04 17:34 47.43728 19.23192 455 ft 2 kts 261°
2026-05-04 17:35 47.43646 19.22953 456 ft 10 kts 147°
2026-05-04 17:35 47.43521 19.23089 456 ft 16 kts 143°
2026-05-04 17:35 47.43438 19.23199 456 ft 17 kts 119°
2026-05-04 17:36 47.43387 19.23354 456 ft 17 kts 116°
2026-05-04 17:36 47.43327 19.23532 456 ft 19 kts 116°
2026-05-04 17:36 47.43269 19.23705 454 ft 18 kts 116°
2026-05-04 17:36 47.43214 19.23872 456 ft 18 kts 116°
2026-05-04 17:37 47.43160 19.24033 456 ft 17 kts 116°
2026-05-04 17:37 47.43109 19.24188 455 ft 17 kts 116°
2026-05-04 17:37 47.43059 19.24337 456 ft 16 kts 116°
2026-05-04 17:37 47.43011 19.24481 454 ft 15 kts 116°
2026-05-04 17:38 47.42977 19.24584 455 ft 10 kts 116°
2026-05-04 17:38 47.42962 19.24630 456 ft 0 kts 116°
2026-05-04 17:43 47.42945 19.24682 456 ft 10 kts 116°
2026-05-04 17:43 47.42920 19.24787 457 ft 11 kts 86°
2026-05-04 17:43 47.42964 19.24874 457 ft 11 kts 43°
2026-05-04 17:44 47.43049 19.24967 457 ft 14 kts
2026-05-04 17:44 47.43133 19.24888 456 ft 18 kts 313°
2026-05-04 17:44 47.43242 19.24706 455 ft 26 kts 310°
2026-05-04 17:44 47.43375 19.24496 451 ft 32 kts 313°
2026-05-04 17:45 47.43534 19.24240 451 ft 34 kts 312°
2026-05-04 17:45 47.43691 19.23988 453 ft 32 kts 312°
2026-05-04 17:45 47.43835 19.23754 454 ft 30 kts 313°
2026-05-04 17:45 47.43979 19.23522 454 ft 34 kts 312°
2026-05-04 17:46 47.44152 19.23243 452 ft 40 kts 313°
2026-05-04 17:46 47.44348 19.22928 450 ft 42 kts 312°
2026-05-04 17:46 47.44514 19.22657 450 ft 20 kts 307°
2026-05-04 17:46 47.44510 19.22476 454 ft 13 kts 252°
2026-05-04 17:47 47.44500 19.22427 455 ft 0 kts 252°
2026-05-04 17:47 47.44499 19.22425 455 ft 0 kts 252°
2026-05-04 17:47 47.44499 19.22424 455 ft 0 kts 252°
2026-05-04 17:48 47.44497 19.22414 455 ft 2 kts 250°
2026-05-04 17:48 47.44493 19.22405 453 ft 0 kts 240°
2026-05-04 17:49 47.44479 19.22389 455 ft 4 kts 205°
2026-05-04 17:49 47.44440 19.22399 455 ft 9 kts 156°
2026-05-04 17:49 47.44379 19.22448 456 ft 10 kts 148°
2026-05-04 17:50 47.44315 19.22491 455 ft 11 kts 155°
2026-05-04 17:50 47.44253 19.22534 456 ft 7 kts 152°
2026-05-04 17:50 47.44218 19.22557 455 ft 3 kts 175°
2026-05-04 17:50 47.44195 19.22553 456 ft 3 kts 163°
2026-05-04 17:51 47.44175 19.22577 456 ft 5 kts 139°
2026-05-04 17:51 47.44137 19.22612 456 ft 3 kts 152°
2026-05-04 17:51 47.44108 19.22617 455 ft 5 kts 207°
2026-05-04 17:51 47.44087 19.22576 456 ft 5 kts 244°
2026-05-04 17:52 47.44080 19.22552 456 ft 2 kts 245°
2026-05-04 17:52 47.44079 19.22549 456 ft 0 kts 245°